Location: Meanaryar
(48.4161°N, 4.7315°W)
Time: 08:03:51
(UTC+00:00)

Cosmos 1092 Rocket - Pass Details

Date: 22 January 2021
Orbit: 954 x 995 km, 83.0° (Epoch: 02 March)

Event Time Altitude Azimuth Distance (km) Brightness Sun altitude
Rises 19:27:20 0° 195° (SSW) 3,652 7.2 -23.7°
Reaches altitude 10° 19:29:52 10° 198° (SSW) 2,703 6.5 -24.2°
Maximum altitude 19:36:01 68° 281° (WNW) 1,035 4.2 -25.2°
Drops below altitude 10° 19:42:10 10° 5° (N) 2,700 6.3 -26.2°
Sets 19:44:42 0° 8° (N) 3,647 6.9 -26.6°
